Weather History for Rapid City, SD

Change the Weather History Date:

Thursday, June 26, 2014

  Actual Average Record
Temperature  
Mean Temperature 71 °F 68 °F  
Max Temperature 84 °F 82 °F 109 °F (2012)
Min Temperature 57 °F 54 °F 42 °F (1968)
Degree Days  
Heating Degree Days 0 2  
Month to date heating degree days 124 94  
Since 1 June heating degree days 124 94  
Since 1 July heating degree days 7763 7148  
Cooling Degree Days 6 5  
Month to date cooling degree days 19 62  
Year to date cooling degree days 39 77  
Since 1 June cooling degree days 19 62  
Growing Degree Days 20 (Base 50)    
Moisture  
Dew Point 59 °F    
Average Humidity 73    
Maximum Humidity 90    
Minimum Humidity 55    
Precipitation  
Precipitation 0.67 in 0.06 in 0.95 in (1943)
Month to date precipitation 4.71 2.30  
Year to date precipitation 10.10 8.99  
Snow  
Snow 0.00 in 0.00 in - ()
Month to date snowfall 0.0 0.0  
Since 1 June snowfall 0.0 0.0  
Since 1 July snowfall 63.8 41.1  
Snow Depth 0.00 in    
Sea Level Pressure  
Sea Level Pressure 29.68 in    
Wind  
Wind Speed 10 mph (East)    
Max Wind Speed 43 mph    
Max Gust Speed 54 mph    
Visibility 9 miles    
Events Fog , Rain , Thunderstorm    
T = Trace of Precipitation, MM = Missing Value Source: NWS Daily Summary

Daily Weather History Graph

Daily Weather History Graph

Search for Another Location

Airport:

Trip Planner

Search our weather history database for the weather conditions in past years. The results will help you decide how hot, cold, wet, or windy it might be!

Date:

Astronomy

Jun. 26, 2014 Rise Set
Actual Time 5:10 AM MDT 8:39 PM MDT
Civil Twilight 4:34 AM MDT 9:15 PM MDT
Nautical Twilight 3:46 AM MDT 10:03 PM MDT
Astronomical Twilight 2:45 AM MDT 11:04 PM MDT
Moon 4:55 AM MDT (6/26) 7:58 PM MDT (6/26)
Length of Visible Light 16h 41m
Length of Day
15h 28m
Waning Crescent, 0% of the Moon is Illuminated
Jun 26
Waning Crescent
Jun 27
New
Jul 5
First Quarter
Jul 12
Full
Jul 18
Last Quarter

Hourly Weather History & Observations

Time (MDT) Temp. Heat Index Dew Point Humidity Pressure Visibility Wind Dir Wind Speed Gust Speed Precip Events Conditions
12:52 AM 60.8 °F - 55.4 °F 82% 29.85 in 10.0 mi SSW 9.2 mph - N/A   Clear
1:52 AM 59.0 °F - 55.9 °F 90% 29.79 in 10.0 mi SSE 9.2 mph - N/A   Clear
2:52 AM 60.1 °F - 55.9 °F 86% 29.77 in 10.0 mi SE 6.9 mph - N/A   Clear
3:52 AM 62.1 °F - 55.0 °F 78% 29.81 in 10.0 mi NNW 8.1 mph - 0.00 in Rain Light Rain
4:52 AM 63.0 °F - 57.0 °F 81% 29.78 in 10.0 mi NNW 10.4 mph 20.7 mph 0.00 in   Clear
5:52 AM 60.1 °F - 57.0 °F 90% 29.76 in 10.0 mi North 4.6 mph - N/A   Clear
6:52 AM 62.1 °F - 57.9 °F 86% 29.78 in 10.0 mi SE 4.6 mph - N/A   Clear
7:52 AM 66.0 °F - 59.0 °F 78% 29.76 in 10.0 mi Calm Calm - N/A   Clear
8:52 AM 69.1 °F - 60.1 °F 73% 29.75 in 10.0 mi West 3.5 mph - N/A   Clear
9:52 AM 73.0 °F - 59.0 °F 61% 29.73 in 10.0 mi SSE 5.8 mph - N/A   Clear
10:52 AM 75.0 °F - 62.1 °F 64% 29.72 in 10.0 mi SE 9.2 mph - N/A   Clear
11:52 AM 77.0 °F - 64.9 °F 66% 29.70 in 10.0 mi SE 16.1 mph - N/A   Clear
12:52 PM 75.0 °F - 63.0 °F 66% 29.69 in 10.0 mi SSE 15.0 mph - N/A   Clear
1:52 PM 80.1 °F 81.7 °F 64.0 °F 58% 29.66 in 10.0 mi South 13.8 mph 21.9 mph N/A   Clear
2:52 PM 82.0 °F 83.8 °F 64.9 °F 56% 29.64 in 10.0 mi South 15.0 mph - N/A   Clear
3:52 PM 82.9 °F 84.6 °F 64.9 °F 54% 29.61 in 10.0 mi SSE 12.7 mph - N/A   Clear
4:52 PM 84.0 °F 86.3 °F 66.0 °F 55% 29.58 in 10.0 mi SSE 10.4 mph - N/A   Clear
5:52 PM 79.0 °F - 66.0 °F 64% 29.55 in 10.0 mi ESE 9.2 mph - N/A   Clear
6:52 PM 78.1 °F - 66.0 °F 66% 29.54 in 10.0 mi ESE 6.9 mph - N/A   Clear
7:52 PM 73.9 °F - 64.0 °F 71% 29.56 in 10.0 mi SE 5.8 mph - N/A   Clear
8:25 PM 75.0 °F - 54.0 °F 48% 29.64 in 10.0 mi NNW 12.7 mph - N/A   Overcast
8:52 PM 73.9 °F - 50.0 °F 43% 29.56 in 10.0 mi WNW 20.7 mph 28.8 mph N/A Thunderstorm Thunderstorm
9:11 PM 62.1 °F - 55.0 °F 78% 29.68 in 1.5 mi WNW 42.6 mph 54.1 mph 0.00 in Rain , Thunderstorm Heavy Thunderstorms and Rain
9:18 PM 57.9 °F - 55.9 °F 93% 29.69 in 0.5 mi NNW 32.2 mph 54.1 mph 0.16 in Fog , Rain , Thunderstorm Heavy Thunderstorms and Rain
9:25 PM 57.0 °F - 55.9 °F 96% 29.69 in 1.0 mi North 20.7 mph 40.3 mph 0.51 in Rain , Thunderstorm Heavy Thunderstorms and Rain
9:31 PM 57.0 °F - 55.0 °F 93% 29.68 in 3.0 mi North 17.3 mph - 0.57 in Rain , Thunderstorm Heavy Thunderstorms and Rain
9:47 PM 57.2 °F - 55.4 °F 94% 29.69 in 7.0 mi North 18.4 mph 28.8 mph 0.67 in Rain , Thunderstorm Light Rain
9:52 PM 57.9 °F - 55.0 °F 90% 29.64 in 10.0 mi NNE 13.8 mph - 0.67 in Rain , Thunderstorm Light Rain
10:21 PM 59.0 °F - 57.0 °F 93% 29.69 in 10.0 mi NNE 15.0 mph - 0.00 in   Clear
10:52 PM 60.1 °F - 57.0 °F 90% 29.62 in 10.0 mi WSW 5.8 mph - 0.00 in   Scattered Clouds
11:18 PM 60.1 °F - 57.0 °F 90% 29.67 in 10.0 mi NW 12.7 mph - N/A   Partly Cloudy
11:52 PM 61.0 °F - 57.0 °F 87% 29.62 in 10.0 mi North 11.5 mph - N/A   Clear